Temperature
12 13 13 13 13 13 14 14 14 14 14 14 15 15 15 15 15 15 15 15 15 15 15 15 15 15 15 15 15 15 15 15 15 15 15 15 15 15 15 15 15 15 15
12 13 13 13 13 13 14 14 14 14 14 14 14 15 15 15 15 15 15 15 15 15 15 15 15 15 15 15 15 15 15 15 15 15 15 15 15 15 15 15 15 15 15
12 12 13 13 13 13 13 13 13 14 14 14 14 14 14 15 15 15 15 15 15 15 15 15 15 15 15 15 15 15 15 15 15 15 14 14 14 15 15 15 15 15 14
12 12 12 12 13 13 13 13 13 14 14 14 14 14 14 14 14 14 14 14 14 14 15 15 15 15 15 15 15 15 15 15 14 14 14 14 14 14 14 15 14 14 14
12 12 12 12 12 13 13 13 13 13 14 14 14 14 14 14 14 14 14 14 14 14 14 14 14 15 15 15 15 15 14 14 14 14 14 14 14 14 14 14 14 14 14
11 11 12 12 12 12 13 13 13 13 13 13 14 14 14 14 14 14 14 14 14 14 14 14 14 14 14 14 14 14 14 14 14 13 13 13 13 14 14 14 14 14 14
11 11 12 12 12 12 12 12 13 13 13 13 13 13 13 14 13 13 13 14 14 14 14 14 14 14 14 14 14 14 14 14 13 13 13 13 13 14 14 14 14 13 13
11 11 11 11 11 12 12 12 12 13 13 13 13 13 13 13 13 13 13 13 13 13 13 14 14 14 14 14 14 14 14 14 13 13 13 13 13 13 13 13 13 13 13
11 11 11 11 11 11 11 12 12 12 13 13 13 13 13 13 13 13 13 13 13 13 13 13 13 13 13 13 13 14 14 14 13 13 13 13 13 13 13 13 13 13 13
10 10 11 11 11 11 11 11 12 12 12 12 12 12 12 13 13 13 12 12 13 13 13 13 13 13 13 13 13 13 13 13 13 13 12 12 13 13 13 13 13 13 13
10 10 10 10 10 11 11 11 11 11 11 12 12 12 12 12 12 12 12 12 12 12 12 13 12 12 13 13 13 13 13 12 12 12 12 12 12 12 13 13 13 13 13
9 10 10 10 10 10 10 11 11 11 11 11 11 11 11 11 11 11 11 11 12 12 12 12 12 12 12 12 12 12 12 12 12 12 12 12 12 12 12 12 12 12 12
8 9 9 9 9 10 10 10 10 10 10 10 10 11 11 11 11 11 11 11 11 11 11 11 12 11 11 11 12 12 12 12 11 11 11 12 12 12 12 12 12 12 12
8 8 8 9 9 9 9 9 9 10 10 10 10 10 10 10 10 10 10 10 10 10 11 11 11 11 11 11 11 11 11 11 11 11 11 12 12 12 12 12 12 12 12
7 8 8 8 8 8 8 9 9 9 9 9 9 9 9 9 10 10 10 10 10 10 10 10 10 10 11 11 11 11 11 11 11 11 11 11 11 11 11 11 11 11 11
7 7 7 7 8 8 8 8 8 8 8 8 8 9 9 9 9 9 9 9 10 10 10 10 10 10 10 10 10 10 10 10 10 10 11 11 11 11 11 11 11 11 11
7 7 7 7 7 7 7 7 7 8 8 8 8 8 8 8 8 9 9 9 9 9 9 9 10 10 10 10 10 10 10 10 10 10 10 10 10 10 11 11 11 11 11
6 6 6 6 6 7 7 7 7 7 7 7 7 7 7 8 8 8 8 8 9 9 9 9 9 9 9 9 9 10 10 10 10 10 10 10 10 10 10 10 10 11 11
6 6 6 6 6 6 6 6 6 6 6 7 7 7 7 7 7 7 8 8 8 8 8 8 9 9 9 9 9 9 9 9 9 9 9 10 10 10 10 10 10 10 10
5 5 5 5 5 5 5 6 6 6 6 6 6 7 7 7 7 7 7 7 7 8 8 8 8 8 8 8 8 8 9 9 9 9 9 9 9 10 10 10 10 10 10
5 5 5 5 5 5 5 5 5 5 5 6 6 6 6 6 7 7 7 7 7 7 7 7 8 8 8 8 8 8 8 8 8 9 9 9 9 9 9 10 10 10 10
4 4 4 4 4 4 4 4 5 5 5 5 6 6 6 6 6 6 6 6 6 7 7 7 7 7 7 7 7 6 7 7 7 8 8 9 9 9 9 9 9 9 9
3 3 3 3 4 4 4 4 4 4 4 4 5 5 5 5 6 6 6 6 6 6 6 6 6 6 6 6 6 6 6 7 7 7 8 8 8 8 9 9 9 9 9
2 2 2 2 3 3 3 3 3 3 3 4 4 4 5 5 5 5 5 5 5 5 6 6 6 6 6 6 6 6 6 6 6 7 7 8 8 8 8 8 9 9 9
2 2 2 2 2 2 2 2 3 3 3 3 4 4 4 4 4 5 5 5 5 5 5 5 5 5 5 5 6 6 6 6 6 6 6 7 7 8 8 8 8 8 8
1 1 1 1 2 2 2 2 2 2 2 3 3 3 3 4 4 4 4 4 4 5 5 5 5 5 5 5 5 5 6 6 6 6 6 6 6 7 7 8 8 8 8
Wind_Speed
3 6 7 7 6 6 6 6 6 6 6 7 7 8 8 9 9 9 10 10 10 10 11 11 12 12 12 12 13 13 13 14 14 14 14 14 15 15 14 13 13 15 16
4 5 5 7 7 7 7 7 7 6 6 6 7 8 8 8 9 9 9 9 9 10 10 11 11 11 12 12 13 13 13 13 14 14 13 14 14 14 14 13 13 14 15
5 5 4 7 7 8 8 7 7 7 6 6 6 7 8 8 8 8 9 9 9 9 9 10 11 11 12 12 12 13 12 12 12 11 10 11 13 13 13 14 14 15 15
4 4 4 7 8 8 8 9 8 7 6 6 6 6 7 8 8 8 8 8 8 8 9 9 10 10 11 11 12 12 12 11 9 7 8 9 11 12 12 13 13 14 14
4 5 6 7 7 8 8 8 9 9 8 7 6 6 6 7 7 8 8 8 8 8 8 9 9 9 10 10 11 11 11 10 8 7 8 9 10 12 12 12 13 13 13
4 6 6 8 7 7 7 8 8 8 8 8 7 6 6 6 6 7 7 8 7 7 8 8 8 8 9 9 9 9 9 7 6 7 8 8 9 11 11 11 12 12 13
4 6 6 8 7 7 7 6 7 7 7 8 7 6 6 6 6 6 6 7 7 7 7 7 7 8 8 8 8 8 7 5 5 7 7 7 9 10 10 11 11 12 12
4 5 6 8 8 7 6 6 6 7 7 7 7 7 6 6 6 6 6 6 6 6 6 6 7 7 7 7 7 7 6 4 5 6 6 7 9 9 10 10 11 12 12
5 6 7 6 7 6 6 6 6 6 6 7 7 7 6 6 6 6 5 5 5 5 6 6 6 6 6 6 7 6 6 3 4 5 6 6 8 8 9 10 11 11 11
5 6 6 6 6 5 4 6 6 6 6 6 7 7 6 5 5 5 5 5 5 6 6 6 6 6 5 6 5 5 5 3 4 5 4 6 8 8 9 9 10 10 11
4 5 5 5 6 5 4 4 5 5 5 5 6 6 5 3 3 3 4 5 4 5 5 6 5 5 5 4 4 4 4 3 3 3 4 6 8 8 9 9 9 10 10
2 3 4 4 5 5 4 3 3 3 4 4 4 4 3 2 2 2 4 5 4 4 5 5 5 4 3 3 3 4 3 3 3 3 4 6 7 8 8 9 9 9 9
0 2 3 4 4 4 4 3 2 2 3 3 3 3 3 3 2 2 2 3 3 3 2 3 3 2 2 2 2 3 3 3 2 3 5 5 6 7 8 8 8 8 8
1 1 2 3 3 3 4 3 2 3 3 3 3 3 2 2 2 1 0 1 1 1 1 1 1 2 2 2 3 3 3 3 3 2 4 5 5 6 7 8 8 8 8
2 2 2 2 2 3 3 2 2 2 2 3 2 2 2 1 1 1 1 1 1 1 2 1 1 2 2 2 2 3 4 3 3 3 3 4 4 4 6 7 7 7 7
3 3 2 2 2 2 2 2 1 2 1 2 2 2 2 1 1 1 1 1 1 1 2 2 2 1 2 2 2 2 3 3 3 4 3 4 4 4 5 6 7 7 7
3 3 2 2 2 2 2 2 1 1 1 1 1 1 2 2 1 2 1 1 1 1 2 2 2 1 1 2 2 3 2 3 4 4 4 4 4 5 4 5 6 6 7
3 3 2 2 2 2 2 2 1 1 1 1 1 1 1 2 2 1 1 1 1 1 1 2 2 2 1 2 2 2 2 2 4 4 4 4 4 4 5 4 5 5 6
3 3 2 2 2 2 2 2 1 1 1 1 1 1 1 2 2 2 1 1 1 1 1 2 2 3 3 2 2 2 2 2 3 4 4 4 4 4 5 4 5 5 5
3 3 3 2 2 2 2 2 1 1 1 2 1 2 2 2 2 2 2 2 1 1 1 2 2 3 3 2 2 2 2 3 3 4 5 4 5 5 5 5 5 5 5
2 2 3 3 2 1 1 2 2 2 2 2 2 2 2 2 2 2 2 2 2 2 2 2 2 3 2 2 2 2 2 3 4 4 4 4 4 5 5 5 5 5 5
3 3 3 3 2 2 2 2 3 3 3 3 2 3 3 3 2 2 2 2 2 2 2 2 2 2 2 3 3 2 2 3 4 4 4 5 5 5 5 6 6 5 5
3 3 3 3 3 3 2 2 2 2 2 2 3 3 3 3 3 3 3 3 3 3 3 3 3 4 4 3 3 3 3 3 1 3 5 5 5 5 5 5 6 6 6
4 3 3 3 3 3 3 2 3 3 3 4 3 3 4 4 4 4 4 4 4 4 4 4 4 4 5 4 4 4 3 3 3 2 3 4 5 6 6 5 5 6 7
3 3 3 3 3 3 3 4 4 4 4 4 3 4 4 4 4 5 5 4 5 4 5 5 5 5 5 6 5 4 4 3 5 4 4 4 4 4 4 4 4 5 6
3 3 3 3 4 4 4 4 5 5 5 5 5 4 4 4 4 5 5 5 5 5 5 6 6 7 6 6 6 5 5 5 5 4 5 5 5 4 4 4 4 4 5
Wind_Direction
357 349 356 3 24 40 51 59 69 85 93 99 102 100 96 92 91 91 88 86 82 80 81 80 82 83 87 88 92 95 96 95 94 92 91 91 92 92 91 92 95 91 90
345 346 5 21 37 43 47 55 62 73 89 98 103 103 100 98 95 90 88 86 84 82 83 84 84 85 86 88 89 94 97 97 97 97 98 97 94 92 90 83 80 92 93
7 4 26 30 46 50 46 50 57 66 78 91 100 100 103 101 96 94 91 87 85 84 84 86 86 87 88 89 90 91 95 98 100 106 114 107 101 95 94 91 90 94 94
9 12 25 37 44 51 51 52 53 59 68 79 91 97 101 102 99 98 95 90 85 84 86 87 87 88 90 92 93 92 91 97 103 115 110 103 103 98 99 98 97 98 96
21 21 28 34 44 48 54 55 54 57 59 66 80 97 100 99 99 98 97 93 89 86 88 87 88 91 94 96 96 95 91 93 106 114 104 103 102 100 101 101 99 100 99
29 25 31 32 47 50 55 57 56 55 56 61 70 87 96 100 101 99 99 96 94 91 91 89 90 93 95 97 98 98 95 97 119 109 109 107 104 103 102 104 102 102 104
33 26 35 28 40 53 54 56 57 54 54 55 62 78 85 89 98 101 102 101 99 96 96 95 95 95 95 97 99 99 98 93 106 110 109 107 105 105 104 103 103 101 103
42 35 39 31 32 46 53 56 56 55 54 53 54 64 77 85 88 93 97 105 107 103 99 99 99 98 97 97 99 99 100 102 107 109 113 110 105 110 110 106 106 103 99
48 43 40 31 29 33 48 52 54 58 54 51 52 57 69 78 81 83 89 101 111 113 108 105 101 100 100 99 101 100 95 89 108 111 116 115 113 117 114 110 110 108 106
51 44 36 29 26 23 35 47 50 56 58 54 53 55 61 81 86 82 84 92 107 108 110 108 100 98 97 99 102 110 111 132 119 119 118 119 120 124 122 117 113 111 112
49 41 32 26 22 19 27 39 56 55 56 60 57 58 68 77 99 101 79 79 105 109 108 112 112 106 101 103 106 124 145 138 128 121 116 118 131 132 129 125 120 116 115
29 24 23 20 18 15 20 29 38 47 49 52 54 57 49 45 55 84 94 87 96 110 113 112 119 128 139 141 139 159 159 149 136 127 112 115 140 141 136 133 127 124 120
310 7 7 7 9 12 12 19 19 34 37 32 35 40 36 45 41 68 111 111 117 125 130 131 149 161 168 165 174 173 160 152 151 142 127 125 137 147 144 141 139 133 130
262 330 351 358 0 1 2 10 17 25 28 20 20 24 22 30 21 25 31 163 165 161 146 179 186 172 182 185 186 176 164 164 166 154 137 143 150 150 153 150 150 148 146
257 282 317 341 347 355 354 2 8 21 23 17 10 12 9 3 348 344 330 263 230 197 184 176 198 198 195 191 197 185 174 173 175 170 154 148 164 154 157 155 157 159 157
263 265 275 317 333 341 341 347 354 7 10 5 4 0 2 351 325 297 240 267 260 237 211 201 196 210 208 196 198 198 192 182 182 182 177 169 163 168 162 166 169 168 166
263 265 267 266 302 310 311 327 342 338 333 356 349 344 354 342 317 305 253 244 269 259 229 199 186 186 197 197 204 202 201 198 191 190 190 191 182 174 173 174 172 174 175
283 265 267 271 272 276 288 304 309 318 320 326 322 322 338 329 319 311 280 258 269 242 236 206 194 194 201 211 203 202 199 196 198 198 195 196 197 191 179 178 181 181 184
283 281 256 257 262 273 272 278 271 313 322 306 283 298 311 318 311 301 288 265 244 230 243 224 209 205 201 209 211 213 213 206 208 206 203 202 205 203 193 182 191 194 193
281 291 272 246 265 277 278 282 259 270 307 302 293 297 291 298 305 301 283 256 234 222 227 232 215 214 205 197 209 222 216 214 221 213 211 205 206 207 205 199 198 199 201
278 293 294 257 257 265 265 267 242 248 267 279 293 279 273 273 289 294 282 256 233 217 221 218 213 200 198 194 193 205 223 217 215 220 217 209 208 209 207 207 208 208 204
268 274 283 278 252 248 250 261 247 249 249 267 281 281 264 264 269 277 272 259 242 224 217 212 211 207 212 207 199 190 205 220 215 224 217 216 218 210 210 212 211 213 207
266 264 268 273 271 253 249 260 258 250 257 260 268 267 275 265 258 258 258 259 251 229 219 222 220 221 216 219 214 208 205 216 233 217 219 220 218 215 213 216 214 216 212
267 265 268 270 273 272 248 246 237 236 260 277 275 273 275 262 257 252 252 253 248 240 227 223 225 233 219 216 219 234 239 224 215 212 222 223 223 222 216 217 217 220 220
266 266 264 266 270 279 261 249 235 240 253 261 265 270 276 269 261 254 251 253 248 244 238 231 231 232 227 220 217 222 227 224 236 226 226 226 229 231 224 223 224 224 222
260 261 264 263 270 274 268 256 236 238 250 258 263 268 272 275 271 262 251 251 249 245 244 238 234 230 233 228 221 222 220 213 218 227 227 223 231 232 230 232 230 230 226
Height
1539 1539 1539 1540 1540 1540 1540 1540 1541 1541 1541 1541 1541 1541 1541 1541 1541 1541 1541 1541 1541 1541 1541 1541 1541 1540 1540 1540 1540 1540 1540 1540 1540 1540 1540 1540 1540 1540 1540 1540 1540 1540 1540
1538 1539 1539 1540 1540 1540 1540 1540 1541 1541 1541 1541 1541 1541 1541 1541 1542 1542 1542 1542 1542 1542 1542 1542 1542 1541 1541 1541 1541 1541 1542 1542 1542 1542 1542 1542 1542 1542 1542 1542 1542 1542 1542
1538 1538 1539 1540 1540 1540 1540 1540 1540 1541 1541 1541 1541 1542 1542 1542 1542 1542 1543 1543 1543 1543 1543 1543 1543 1542 1542 1542 1542 1543 1543 1543 1543 1544 1544 1544 1544 1544 1544 1544 1544 1544 1544
1538 1538 1539 1539 1540 1540 1540 1540 1540 1540 1541 1541 1541 1542 1542 1542 1543 1543 1543 1543 1543 1544 1543 1543 1543 1543 1543 1543 1544 1544 1544 1544 1545 1545 1546 1546 1546 1545 1545 1545 1545 1545 1545
1538 1538 1538 1539 1539 1539 1539 1540 1540 1540 1540 1541 1541 1542 1542 1542 1542 1543 1543 1543 1543 1544 1544 1544 1544 1544 1544 1544 1544 1545 1545 1545 1546 1546 1547 1547 1547 1547 1547 1547 1547 1547 1547
1537 1538 1538 1538 1539 1539 1539 1539 1539 1540 1540 1540 1541 1541 1541 1542 1542 1543 1543 1543 1543 1544 1544 1544 1544 1545 1545 1545 1545 1545 1546 1546 1547 1548 1548 1548 1548 1548 1548 1548 1548 1548 1548
1537 1537 1537 1537 1538 1538 1538 1538 1539 1539 1539 1540 1540 1541 1541 1541 1542 1542 1543 1543 1543 1543 1544 1544 1544 1545 1545 1545 1546 1546 1546 1547 1548 1548 1549 1549 1549 1549 1549 1549 1550 1550 1549
1537 1537 1537 1537 1537 1537 1537 1538 1538 1538 1539 1539 1539 1540 1540 1541 1541 1542 1542 1542 1543 1543 1543 1544 1544 1545 1545 1545 1546 1546 1547 1547 1548 1549 1549 1549 1549 1550 1550 1550 1550 1550 1550
1536 1536 1536 1536 1536 1536 1537 1537 1537 1537 1538 1538 1539 1539 1540 1540 1540 1541 1541 1542 1542 1542 1543 1543 1544 1544 1545 1545 1546 1546 1547 1548 1548 1549 1549 1549 1550 1550 1551 1551 1551 1551 1551
1535 1535 1535 1535 1535 1535 1536 1536 1536 1536 1537 1537 1537 1538 1538 1539 1539 1540 1540 1541 1541 1541 1542 1542 1543 1543 1544 1545 1545 1546 1547 1548 1549 1549 1549 1550 1550 1551 1551 1551 1551 1552 1552
1534 1534 1534 1534 1534 1534 1535 1534 1534 1535 1535 1536 1536 1536 1537 1538 1538 1538 1539 1539 1540 1540 1541 1541 1542 1543 1543 1544 1544 1545 1547 1548 1548 1549 1549 1549 1550 1551 1551 1551 1552 1552 1553
1532 1532 1532 1532 1533 1533 1533 1533 1533 1533 1534 1534 1534 1535 1535 1536 1536 1537 1538 1538 1538 1539 1540 1540 1541 1541 1542 1543 1543 1544 1546 1547 1548 1548 1548 1549 1549 1550 1551 1552 1552 1553 1553
1531 1531 1531 1531 1531 1531 1531 1531 1531 1531 1532 1532 1532 1533 1533 1534 1534 1535 1536 1536 1537 1537 1538 1539 1539 1540 1541 1541 1542 1543 1544 1545 1546 1547 1548 1548 1549 1550 1551 1551 1552 1553 1553
1529 1529 1529 1530 1530 1529 1529 1530 1529 1529 1530 1530 1530 1531 1531 1531 1532 1533 1533 1534 1535 1535 1536 1537 1538 1538 1539 1540 1541 1542 1543 1544 1545 1546 1546 1547 1549 1549 1550 1551 1552 1552 1553
1527 1528 1528 1528 1528 1527 1527 1527 1528 1527 1528 1528 1528 1529 1529 1529 1530 1530 1531 1532 1533 1533 1534 1534 1535 1536 1538 1538 1539 1540 1541 1542 1544 1544 1545 1546 1547 1548 1549 1550 1551 1552 1553
1525 1526 1526 1526 1526 1526 1526 1525 1525 1525 1526 1526 1527 1527 1527 1527 1528 1528 1529 1529 1530 1531 1532 1532 1533 1534 1535 1536 1537 1538 1539 1540 1541 1543 1544 1545 1546 1547 1548 1549 1550 1551 1552
1523 1523 1523 1523 1524 1524 1524 1523 1524 1523 1524 1524 1525 1525 1525 1525 1526 1526 1526 1527 1527 1528 1529 1530 1531 1532 1533 1534 1535 1536 1537 1538 1539 1541 1542 1543 1544 1545 1546 1548 1549 1550 1551
1520 1521 1521 1521 1521 1521 1521 1521 1521 1521 1521 1522 1522 1522 1522 1523 1523 1523 1524 1524 1525 1525 1526 1527 1528 1529 1530 1531 1532 1533 1534 1536 1537 1538 1540 1541 1542 1543 1544 1546 1547 1548 1549
1517 1517 1518 1518 1518 1518 1518 1518 1518 1518 1519 1519 1519 1520 1520 1520 1520 1521 1521 1521 1522 1522 1523 1524 1525 1526 1527 1528 1529 1530 1532 1533 1534 1536 1537 1538 1540 1541 1542 1543 1545 1546 1547
1514 1514 1514 1515 1515 1515 1515 1515 1516 1516 1516 1516 1517 1517 1517 1517 1517 1518 1518 1518 1519 1519 1520 1521 1522 1523 1524 1525 1526 1528 1529 1530 1531 1533 1534 1535 1537 1538 1539 1540 1542 1543 1545
1511 1511 1511 1511 1512 1512 1512 1512 1512 1512 1513 1513 1514 1514 1514 1514 1515 1515 1515 1515 1515 1516 1517 1518 1518 1519 1521 1522 1524 1525 1526 1527 1528 1529 1530 1532 1533 1535 1536 1538 1539 1540 1541
1507 1508 1508 1508 1509 1509 1509 1509 1510 1510 1510 1510 1511 1511 1511 1511 1512 1512 1512 1512 1512 1513 1514 1515 1515 1516 1517 1519 1520 1521 1523 1525 1524 1525 1527 1528 1530 1531 1533 1534 1536 1537 1538
1504 1504 1504 1505 1505 1506 1506 1506 1507 1507 1507 1507 1507 1507 1508 1508 1508 1509 1509 1509 1509 1510 1510 1511 1512 1513 1514 1515 1517 1519 1520 1521 1521 1522 1523 1525 1526 1527 1529 1530 1532 1533 1534
1501 1501 1501 1502 1502 1502 1503 1503 1503 1502 1502 1503 1503 1503 1504 1504 1504 1505 1505 1506 1506 1507 1507 1508 1509 1510 1511 1511 1513 1515 1517 1518 1519 1518 1520 1521 1522 1524 1525 1527 1528 1529 1531
1498 1498 1498 1498 1499 1499 1499 1499 1499 1499 1499 1500 1500 1500 1500 1500 1500 1501 1501 1502 1503 1503 1504 1504 1505 1506 1507 1508 1509 1511 1512 1513 1515 1516 1515 1517 1518 1519 1520 1522 1523 1525 1526
1495 1495 1495 1495 1495 1495 1495 1495 1495 1495 1496 1496 1496 1496 1496 1496 1496 1497 1497 1498 1499 1499 1499 1500 1501 1502 1503 1504 1505 1506 1508 1508 1510 1512 1512 1513 1514 1515 1516 1517 1519 1520 1522